[[{"header":{"parameterUnit":"m.s-1","parameterCategory":1,"la1":30.2991,"la2":30.254,"lo1":-89.0895,"lo2":-89.0444,"dy":0.0017,"dx":0.0017,"nx":28,"ny":28,"refTime":"2023-08-07T09:00:00:Z","depth":0,"parameterNumber":2,"parameterNumberName":"U-component_of_WINDS"},"data":[0,0,0,0,0,0,0,0,0,0,0,0,0,0,0,0,0,0,0,0,0,0,0,0,0,0,0,0,0,0,0,0,0,0,0,0,0,0,0,0,0,0,0,0,0,0,0,0,0,0,0,0,0,0,0,0,0,0,3.52,3.5201,0,3.527,3.527,3.5271,3.5228,3.5226,3.5224,3.5222,3.5291,3.5295,3.5299,0,0,0,0,0,0,0,0,0,0,0,0,0,3.5026,3.5029,3.52,3.5201,3.5202,3.5269,3.527,3.5271,3.5228,3.5226,3.5223,3.5221,3.529,3.5295,3.5299,0,0,0,0,0,0,0,0,0,0,0,0,0,3.5099,3.503,3.52,3.5188,3.5188,3.5269,3.527,3.5272,3.5229,3.5226,3.5223,3.522,3.5289,3.5294,3.53,3.5396,0,0,3.5317,3.5319,0,0,0,0,0,0,0,0,3.5095,3.5105,3.5189,3.5189,3.5189,3.5237,3.5234,3.5313,3.5229,3.5213,3.5222,3.5218,3.5276,3.5282,3.5302,3.5399,3.5402,3.5317,3.5321,3.5323,3.5325,0,0,0,0,0,0,0,3.509,3.5102,3.5227,3.519,3.519,3.5178,3.5185,3.5249,3.5261,3.5214,3.5211,3.522,3.5275,3.5297,3.5303,3.5403,3.5317,3.5322,3.5326,3.5328,3.5577,3.558,0,0,0,0,0,0,3.5086,3.5098,3.5225,3.523,3.5133,3.5184,3.5192,3.5225,3.526,3.5262,3.5223,3.5218,3.5288,3.5297,3.5305,3.5416,3.5323,3.5328,3.5332,3.5573,3.5577,3.5581,0,0,0,0,0,0,3.5082,3.5098,3.5222,3.5163,3.5178,3.519,3.5227,3.5228,3.5249,3.5266,3.5268,3.5243,3.5286,3.5298,3.5372,3.5418,3.5331,3.5336,3.557,3.5575,3.5579,3.564,0,0,0,0,0,0,3.5078,3.5097,3.5135,3.5164,3.5181,3.529,3.523,3.5231,3.5259,3.5253,3.5286,3.5288,3.5285,3.5364,3.5378,3.5424,3.5341,3.5565,3.5572,3.5578,3.5634,3.5647,3.5657,0,0,0,0,0,3.5071,3.515,3.5137,3.5152,3.5229,3.5293,3.5302,3.5297,3.5263,3.53,3.531,3.5287,3.5411,3.5372,3.5387,3.5436,3.5563,3.557,3.5577,3.5629,3.5644,3.5657,0,0,0,0,0,0,3.5125,3.5154,3.5139,3.523,3.5259,3.5285,3.5332,3.5314,3.5354,3.5347,3.5339,3.5346,3.5423,3.5438,3.5394,3.5528,3.5481,3.5492,3.5516,3.553,3.5542,3.5535,3.5345,0,0,0,0,0,3.5148,3.5198,3.522,3.5297,3.5313,3.532,3.5347,3.5341,3.5371,3.5383,3.5399,3.5428,3.5473,3.5503,3.5546,3.5637,3.5641,3.5677,3.5689,3.5698,3.5707,3.5751,3.5767,3.5605,3.5605,3.5604,0,0,3.5195,3.5216,3.5249,3.5309,3.533,3.538,3.5331,3.5387,3.5423,3.5391,3.5462,3.5475,3.5506,3.5588,3.5625,3.5602,3.5752,3.5708,3.5715,3.5718,3.576,3.5776,3.5789,3.561,3.5609,3.5608,0,0,3.5304,3.5328,3.5393,3.5415,3.5448,3.5452,3.5468,3.5496,3.5503,3.5574,3.5549,3.5592,3.5672,3.5693,3.5715,3.583,3.5808,3.5845,3.5904,3.5947,3.596,3.5971,3.6008,3.6022,3.5853,3.5854,3.5854,0,3.5358,3.5434,3.5428,3.5485,3.551,3.5484,3.5547,3.5569,3.5615,3.5632,3.5606,3.5702,3.5722,3.5807,3.5834,3.5854,3.5869,3.584,3.5959,3.597,3.598,3.6015,3.603,3.5857,3.5857,3.5857,3.5856,0,3.5495,3.5548,3.5596,3.564,3.5671,3.5732,3.5733,3.5765,3.5756,3.5761,3.5831,3.5854,3.5899,3.5919,3.5911,3.6002,3.5986,3.596,3.5912,3.6,3.6032,3.6046,3.5863,3.5862,3.586,3.5859,0,0,3.5641,3.5679,3.5697,3.5714,3.5748,3.5787,3.5845,3.5889,3.5914,3.5947,3.5993,3.6059,3.6034,3.6058,3.6052,3.6091,3.6175,3.6059,3.606,3.6077,3.6271,3.6288,3.6304,3.6162,3.6165,3.6167,3.6267,0,3.575,3.5851,3.5846,3.594,3.5985,3.596,3.6009,3.6034,3.6041,3.6079,3.6087,3.6132,3.6098,3.6111,3.6149,3.6157,3.6214,3.615,3.6202,3.6204,3.6191,3.6322,3.6341,3.6435,3.6281,3.6283,3.6285,0,3.589,3.5925,3.6023,3.6046,3.6065,3.611,3.6147,3.6186,3.6213,3.6214,3.624,3.6227,3.6283,3.6236,3.631,3.6267,3.6288,3.6295,3.6299,3.6301,3.6247,3.6324,3.6465,3.6478,3.6305,3.6304,3.6302,0,3.5981,3.6054,3.612,3.6137,3.6167,3.6198,3.6211,3.6235,3.626,3.6293,3.6308,3.6348,3.6369,3.6398,3.6395,3.6362,3.6469,3.6423,3.647,3.6469,3.6491,3.6489,3.6634,3.6511,3.6511,3.651,3.651,0,3.6101,3.6161,3.6161,3.6202,3.6266,3.626,3.6324,3.6334,3.6355,3.6395,3.6377,3.6415,3.641,3.6448,3.6446,3.6505,3.6516,3.6517,3.6515,3.6516,3.6516,3.6528,3.652,3.6514,3.6513,3.6513,3.6512,0,3.6213,3.6216,3.6286,3.6308,3.6314,3.6361,3.6379,3.6416,3.642,3.6471,3.6483,3.649,3.6533,3.6533,3.6583,3.6581,3.6653,3.6646,3.6644,3.6641,3.6686,3.668,3.6841,3.6859,3.6728,3.6729,3.673,0,3.6288,3.6332,3.6358,3.6384,3.6399,3.6441,3.6466,3.6461,3.6487,3.6519,3.6552,3.6593,3.6625,3.6695,3.6703,3.674,3.6731,3.6785,3.6737,3.6736,3.6727,3.6723,3.6726,3.6793,3.6795,3.6796,3.6797,0,3.6418,3.6416,3.6453,3.649,3.652,3.6549,3.6576,3.6597,3.6595,3.6625,3.6669,3.6694,3.6743,3.6783,3.6818,3.6831,3.6812,3.6813,3.6824,3.6825,3.682,3.6819,3.6665,3.6808,3.6807,3.6806,3.6806,3.6805,3.6511,3.6547,3.657,3.6611,3.663,3.6655,3.6689,3.6697,3.6734,3.6773,3.6768,3.6815,3.6837,3.6883,3.6898,3.6934,3.6915,3.6934,3.6937,3.6941,3.6944,3.6817,3.6941,3.6941,3.694,3.694,3.694,0,3.6636,3.6649,3.6687,3.6723,3.6755,3.6736,3.6763,3.679,3.6832,3.6855,3.6886,3.6934,3.6972,3.6983,3.7019,3.7045,3.7037,3.7055,3.7051,3.7053,3.6961,3.6945,3.706,3.706,3.706,3.706,3.706,3.706,3.6705,3.6765,3.6766,3.6834,3.6847,3.6892,3.6909,3.693,3.6948,3.7002,3.7033,3.704,3.7057,3.7094,3.7127,3.7129,3.7141,3.7161,3.7159,3.7072,3.706,3.7048,3.7033,3.7165,3.7165,3.7247,3.7248,3.7249]},{"header":{"parameterUnit":"m.s-1","parameterCategory":1,"la1":30.2991,"la2":30.254,"lo1":-89.0895,"lo2":-89.0444,"dy":0.0017,"dx":0.0017,"nx":28,"ny":28,"refTime":"2023-08-07T09:00:00:Z","depth":0,"parameterNumber":3,"parameterNumberName":"V-component_of_WINDS"},"data":[0,0,0,0,0,0,0,0,0,0,0,0,0,0,0,0,0,0,0,0,0,0,0,0,0,0,0,0,0,0,0,0,0,0,0,0,0,0,0,0,0,0,0,0,0,0,0,0,0,0,0,0,0,0,0,0,0,0,3.6126,3.6127,0,3.6247,3.6249,3.625,3.6225,3.6223,3.622,3.6218,3.634,3.6345,3.6351,0,0,0,0,0,0,0,0,0,0,0,0,0,3.5867,3.5872,3.6126,3.6127,3.6129,3.6247,3.6249,3.625,3.6225,3.6223,3.622,3.6217,3.6339,3.6345,3.6351,0,0,0,0,0,0,0,0,0,0,0,0,0,3.5983,3.5874,3.6125,3.613,3.6132,3.6247,3.6249,3.6251,3.6226,3.6222,3.6219,3.6216,3.6336,3.6344,3.6352,3.6469,0,0,3.6377,3.638,0,0,0,0,0,0,0,0,3.5977,3.5993,3.6128,3.613,3.6132,3.6218,3.6203,3.6324,3.6227,3.619,3.6218,3.6214,3.6302,3.6313,3.6343,3.6474,3.648,3.6377,3.6382,3.6386,3.6388,0,0,0,0,0,0,0,3.5969,3.5987,3.6174,3.613,3.6133,3.6125,3.6138,3.6225,3.6263,3.6193,3.6192,3.6206,3.6302,3.6335,3.6345,3.6481,3.6377,3.6384,3.6389,3.6392,3.6712,3.6716,0,0,0,0,0,0,3.5959,3.5981,3.617,3.6177,3.6045,3.6133,3.6147,3.6194,3.6262,3.627,3.6209,3.6205,3.6323,3.6336,3.635,3.6489,3.6386,3.6393,3.6398,3.6709,3.6713,3.6717,0,0,0,0,0,0,3.5954,3.5977,3.6165,3.6079,3.6102,3.6141,3.6193,3.6198,3.623,3.6275,3.6281,3.6236,3.6321,3.6338,3.6439,3.6493,3.6397,3.6404,3.6704,3.671,3.6715,3.6771,0,0,0,0,0,0,3.5947,3.5975,3.602,3.608,3.6107,3.6254,3.6197,3.6203,3.6245,3.624,3.6301,3.6308,3.632,3.6427,3.6447,3.6503,3.641,3.67,3.6707,3.6714,3.6764,3.6777,3.6789,0,0,0,0,0,3.5938,3.6031,3.6023,3.6046,3.6165,3.6257,3.6272,3.6284,3.6249,3.6295,3.6323,3.6306,3.6484,3.6438,3.646,3.6519,3.6696,3.6705,3.6713,3.6759,3.6775,3.6788,0,0,0,0,0,0,3.5976,3.6039,3.6031,3.6147,3.6197,3.6252,3.631,3.6301,3.6362,3.6355,3.6367,3.6381,3.6483,3.6511,3.6458,3.6634,3.6585,3.6598,3.6612,3.6628,3.664,3.6631,3.6417,0,0,0,0,0,3.5999,3.6069,3.6119,3.6216,3.6242,3.6272,3.6312,3.6317,3.6369,3.639,3.6426,3.6476,3.6543,3.6587,3.6651,3.6768,3.678,3.6819,3.6831,3.6841,3.6852,3.6914,3.6932,3.6745,3.6745,3.6744,0,0,3.6045,3.6088,3.6131,3.6225,3.6265,3.6336,3.629,3.6368,3.642,3.6402,3.6499,3.6527,3.6583,3.6692,3.6742,3.6718,3.6906,3.6852,3.6859,3.6865,3.6925,3.6942,3.6958,3.675,3.6749,3.6748,0,0,3.6165,3.6206,3.629,3.6331,3.6391,3.641,3.643,3.6487,3.6505,3.6603,3.659,3.6652,3.6768,3.6808,3.6844,3.6978,3.6964,3.6998,3.7062,3.7123,3.7138,3.7151,3.7197,3.7214,3.7009,3.7009,3.7009,0,3.6215,3.6323,3.6335,3.6414,3.6454,3.6441,3.6526,3.6564,3.6642,3.667,3.6643,3.6787,3.6824,3.6942,3.6974,3.7004,3.7026,3.6991,3.7135,3.7148,3.716,3.7205,3.7223,3.7013,3.7013,3.7012,3.7012,0,3.6381,3.6455,3.6516,3.6592,3.664,3.6722,3.6744,3.6791,3.6791,3.6812,3.6911,3.6955,3.7027,3.7055,3.7057,3.7173,3.7156,3.7132,3.7083,3.7182,3.7224,3.7241,3.7018,3.7017,3.7016,3.7015,0,0,3.653,3.661,3.6633,3.6666,3.6731,3.6788,3.6868,3.6939,3.6978,3.7032,3.7098,3.7196,3.7174,3.7214,3.7219,3.7272,3.7374,3.7241,3.7243,3.7264,3.7503,3.7521,3.754,3.7366,3.7369,3.7372,3.7498,0,3.6656,3.6798,3.681,3.6937,3.7005,3.6993,3.7062,3.7109,3.713,3.719,3.7213,3.7282,3.7248,3.7272,3.7324,3.7351,3.7422,3.7342,3.7426,3.7429,3.7412,3.7563,3.7582,3.7699,3.7515,3.7517,3.7519,0,3.6822,3.6881,3.7015,3.7069,3.7098,3.716,3.7225,3.7284,3.7335,3.7347,3.7391,3.7389,3.7469,3.7418,3.7528,3.7473,3.7508,3.7526,3.7531,3.7539,3.748,3.7574,3.7737,3.7754,3.7546,3.7544,3.7542,0,3.6917,3.7029,3.7124,3.7153,3.7218,3.7262,3.7291,3.7339,3.7381,3.7437,3.7464,3.7529,3.7564,3.7614,3.7629,3.759,3.7738,3.7688,3.7749,3.7749,3.7781,3.7779,3.7951,3.7804,3.7804,3.7804,3.7803,0,3.7056,3.7138,3.7167,3.7225,3.7316,3.7328,3.7417,3.7444,3.7486,3.7548,3.7541,3.7599,3.7615,3.7675,3.7687,3.7776,3.7792,3.7803,3.7805,3.7804,3.7802,3.7826,3.7818,3.7808,3.7807,3.7806,3.7806,0,3.7177,3.7199,3.7301,3.7354,3.737,3.7434,3.7479,3.7534,3.7554,3.7632,3.7651,3.7682,3.7753,3.7772,3.7857,3.7865,3.7969,3.7964,3.7952,3.7952,3.8012,3.8005,3.8205,3.8232,3.8068,3.807,3.8071,0,3.7264,3.7327,3.7387,3.7428,3.7459,3.7525,3.7567,3.7581,3.7625,3.7687,3.7734,3.7804,3.7861,3.7974,3.8003,3.8067,3.8063,3.8129,3.8073,3.8069,3.8063,3.8059,3.8065,3.8139,3.8141,3.8143,3.8144,0,3.7416,3.7423,3.7485,3.755,3.7601,3.7653,3.7702,3.7736,3.7756,3.7806,3.7878,3.7922,3.8008,3.8077,3.8142,3.817,3.816,3.8161,3.8178,3.8177,3.8168,3.8173,3.798,3.8156,3.8155,3.8154,3.8154,3.8153,3.7522,3.7577,3.7627,3.7695,3.7734,3.778,3.7834,3.7861,3.7922,3.7993,3.7997,3.8075,3.8123,3.8209,3.8241,3.8301,3.8282,3.8307,3.8314,3.832,3.8324,3.8158,3.8313,3.8313,3.8312,3.8312,3.8312,0,3.7673,3.7704,3.7767,3.7836,3.789,3.7876,3.793,3.7975,3.8044,3.809,3.8146,3.8228,3.8294,3.8329,3.8394,3.8436,3.8433,3.8453,3.8449,3.8456,3.8339,3.8317,3.8454,3.8454,3.8454,3.8454,3.8454,3.8454,3.7757,3.7849,3.7862,3.7972,3.8003,3.808,3.8111,3.8153,3.819,3.8283,3.8338,3.836,3.8401,3.8469,3.8529,3.8537,3.8561,3.8583,3.8589,3.8479,3.8464,3.845,3.843,3.8589,3.8589,3.8701,3.8702,3.8703]}]]